Regional Weather Roundup
Issued by NWS Upton, NY

Home | Current Version | Previous Version | Text Only | Print | Product List | Glossary On
Versions: 1 2 3 4 5 6 7 8 9 10 11 12 13 14 15 16 17 18 19 20 21 22 23 24 25 26 27
000
ASUS41 KOKX 250208
RWROKX

REGIONAL WEATHER ROUNDUP
NATIONAL WEATHER SERVICE NEW YORK NY
1000 PM EDT FRI MAR 24 2017

NOTE: "FAIR" INDICATES FEW OR NO CLOUDS BELOW 12,000 FEET WITH NO
SIGNIFICANT WEATHER AND/OR OBSTRUCTIONS TO VISIBILITY.

NYZ071-072-176-178-NJZ106-104-250300-
NEW YORK CITY METRO AREA

CITY           SKY/WX    TMP DP  RH WIND       PRES   REMARKS
Central Park   CLOUDY    54  32  43 VRB5G18   30.18R
Wall St Helipt PTCLDY    52  34  50 W10       30.17S
LaGuardia APRT MOCLDY    56  33  42 W12       30.16R
Kennedy INTL   CLOUDY    45  39  79 SW9       30.17R
Breezy Point     N/A     48 N/A N/A W6          N/A
Newark/Liberty MOCLDY    52  32  46 SW12      30.16R
Teterboro      CLOUDY    51  34  52 SW5       30.15R
$$

NYZ177-179-078>081-250300-
LONG ISLAND NEW YORK

CITY           SKY/WX    TMP DP  RH WIND       PRES   REMARKS
Jones Beach      N/A     45 N/A N/A SW9         N/A
Matinecock PT  NOT AVBL
Farmingdale    CLOUDY    45  39  79 W5        30.17R
MacArthur/ISP  MOCLDY    44  39  82 SW6       30.16R
Shirley        PTCLDY    44  38  79 SW6       30.18R
Westhampton    PTCLDY    44  37  76 SW12      30.18R
East Hampton     N/A     44  37  77 SW8       30.16S
Montauk          N/A     47  39  74 SW8G17    30.15F
$$

NYZ052-065-067-250300-
HUDSON VALLEY

CITY           SKY/WX    TMP DP  RH WIND       PRES   REMARKS
White Plains   PTCLDY    48  33  56 CALM      30.13S
Newburgh       CLOUDY    41  34  75 CALM      30.13S
Montgomery     PTCLDY    36  31  82 CALM      30.10F
Poughkeepsie   MOCLDY    35  31  85 CALM      30.11F
Albany         LGT RAIN  42  33  70 S7        30.07R
$$

NJZ001-105-106-008-010-013-015-019>022-104-250300-
NEW JERSEY

CITY           SKY/WX    TMP DP  RH WIND       PRES   REMARKS
Newark/Liberty MOCLDY    52  32  46 SW12      30.16R
Teterboro      CLOUDY    51  34  52 SW5       30.15R
Caldwell       CLOUDY    51  33  50 SW6       30.15R
Somerville     PTCLDY    45  33  63 CALM      30.15R
Linden           N/A     53  31  43 CALM      30.17R
Sussex         PTCLDY    37  33  85 W3        30.12F
Andover          N/A     40  33  76 CALM      30.13S
Trenton        PTCLDY    51  32  48 CALM      30.16R
Millville      CLEAR     49  40  71 CALM      30.17S
Atlantic City  CLOUDY    51  39  63 SW9       30.17S
Wrightstown    CLOUDY    50  33  52 CALM      30.14R
Toms River     PTCLDY    45  35  68 CALM      30.18R
Belmar         CLOUDY    52  31  44 SW5       30.18R
$$

PAZ047>061-062-071-250300-
EASTERN PENNSYLVANIA

CITY           SKY/WX    TMP DP  RH WIND       PRES   REMARKS
Philadelphia   PTCLDY    50  34  54 W6        30.17R
Allentown      CLOUDY    44  32  62 CALM      30.16R
Scranton       CLOUDY    45  38  76 S6        30.08F
$$

CTZ002-004>006-009-010-012-RIZ004-006-007-MAZ004-011-015-250300-
SOUTHERN NEW ENGLAND
 IN CT

CITY           SKY/WX    TMP DP  RH WIND       PRES   REMARKS
Bradley INTL   MOCLDY    42  31  64 SW12      30.09F
Hartford       MOCLDY    44  31  60 CALM      30.12S
Danbury        CLOUDY    35  30  82 SW5       30.13F WCI  31
Wtrbury/Oxford MOCLDY    43  28  56 SW5       30.12F
Bridgeport     PTCLDY    43  35  73 SW5       30.14F
Meriden        CLOUDY    44  32  62 S6        30.12F
New Haven      PTCLDY    37  31  78 CALM      30.14F
Chester        NOT AVBL
Groton         MOCLDY    43  36  76 SW9       30.13F
Wilimantic     CLOUDY    46  32  58 SW6       30.11F

 IN RI

CITY           SKY/WX    TMP DP  RH WIND       PRES   REMARKS
Providence     CLOUDY    46  30  53 SW10      30.10F
Block Island   NOT AVBL
Westerly       CLOUDY    45  37  73 VRB5      30.14F
 IN MA

CITY           SKY/WX    TMP DP  RH WIND       PRES   REMARKS
Boston         CLOUDY    45  29  53 W10G20    30.07S
Worcester      CLOUDY    41  28  60 SW20      30.03S
Westfield      PTCLDY    42  30  62 SE7       30.07R
Provincetown   CLOUDY    42  35  76 SW12      30.09F
Nantucket      CLOUDY    43  38  82 SW20      30.15R
$$

ANZ330-335-338-340-345-350-353-355-250300-
COASTAL MARINE OBSERVATIONS


STATION/POSITION TIME  SKY/WX   TEMP    WIND        PRES    VSBY  WAVE
                                AIR SEA DIR/SP/G                  HT/PER
                 (UTC)          (F)     (DEG/KT/KT) (MB)    (MI)  (FT/S)
NY HARB ENTRANCE 0050            44 42  200/ 12/ 16 1021.2          6/ 7
20 S FIRE ISLAND 0150            45 40  230/ 17/ 21 1021.7          7/ 7
GREAT SOUTH BAY  NOT AVBL
23 SSW MONTAUK P 0050            47 43              1021.1          7/ 7
15 E BARNEGAT LI 0130               42                N/A           7/ 6
HUDSON CANYON    0050            49 45  210/ 19/ 23 1022.1          7/ 6
KINGS POINT      0130            50 38              1020.8
EXECUTION ROCKS  NOT AVBL
CENTRAL LI SOUND 0100            41     290/  6/  8   N/A           1/ 3
EASTERN LI SOUND NOT AVBL
ROBBINS REEF     0130            54     240/  9/ 11 1021.4
$$


>>>>>>>>>>>>>>>>>>>>>>>>>>>> KEY <<<<<<<<<<<<<<<<<<<<<<<<<<<
>                                                          <
>     SKY/WX - Sky Condition/Present Weather               <
>     TMP    - Temperature in Fahrenheit                   <
>     DP     - Dew Point in Fahrenheit                     <
>     RH     - Relative Humidity in Percent                <
>     WIND   - Direction (from) and Speed in MPH           <
>     PRES   - Mean Sea Level Pressure (inches of Hg)      <
>     WCI    - Wind Chill Index                            <
>     VSB    - VISIBILITY IN MILES                         <
>     HX     - HEAT INDEX                                  <
>     TC     - TEMPERATURE IN CELSIUS                      <
>     VRB    - VARIABLE WIND DIRECTION                     <
>                                                          <
>>>>>>>>>>>>>>>>>>>>>>>>>>>> KEY <<<<<<<<<<<<<<<<<<<<<<<<<<<




USA.gov is the U.S. government's official web portal to all federal, state and local government web resources and services.